Regional Weather Roundup
Issued by NWS Boston, MA

Current Version | Previous Version | Text Only | Print | Product List | Glossary Off
Versions: 1 2 3 4 5 6 7 8 9 10 11 12 13 14 15 16 17 18 19 20 21 22 23 24 25 26 27 28 29 30 31 32 33 34 35 36 37 38 39 40 41 42 43 44 45 46 47 48 49 50
000 ASUS41 KBOX 300210 RWRBOX REGIONAL WEATHER ROUNDUP NATIONAL WEATHER SERVICE TAUNTON MA 1000 PM EDT FRI MAY 29 2015 NOTE: "FAIR" INDICATES FEW OR NO CLOUDS BELOW 12,000 FEET WITH NO SIGNIFICANT WEATHER AND/OR OBSTRUCTIONS TO VISIBILITY. THE FOLLOWING OBSERVATION LOCATIONS DO NOT REPORT PRESENT WEATHER...PROVINCETOWN... SMITHFIELD...BLOCK ISLAND...KEENE...AND OXFORD. MAZALL-300300- EASTERN MASSACHUSETTS CITY SKY/WX TMP DP RH WIND PRES REMARKS BOSTON CLOUDY 57 56 96 NE5 30.25S BEVERLY FOG 57 55 93 SE6 30.25S VSB 3/4 LAWRENCE CLOUDY 61 58 90 CALM 30.26S BEDFORD CLOUDY 63 58 83 SE6 30.23S BLUE HILL N/A 65 58 78 S12 30.25S NORWOOD CLOUDY 66 58 75 S8 30.25R MARSHFIELD MOCLDY 57 57 100 CALM 30.28R PLYMOUTH MOCLDY 63 59 87 S3 30.26F TAUNTON MOCLDY 58 56 93 CALM 30.25S NEW BEDFORD MOCLDY 61 57 87 SW3 30.25S $$ MAZALL-300300- CAPE COD AND THE ISLANDS CITY SKY/WX TMP DP RH WIND PRES REMARKS FALMOUTH MOCLDY 57 57 100 SE7 30.26F HYANNIS PTCLDY 60 57 89 SE5 30.25S CHATHAM FAIR 57 55 93 CALM 30.28S PROVINCETOWN PTCLDY 59 55 88 S6 30.26F NANTUCKET CLOUDY 61 58 90 SE3 30.27S MARTHAS VNYRD FOG 60 59 96 CALM 30.26F VSB 1/4 $$ MAZALL-300300- CENTRAL AND WESTERN MASSACHUSETTS CITY SKY/WX TMP DP RH WIND PRES REMARKS WORCESTER CLOUDY 67 57 70 S8 30.27R FITCHBURG CLOUDY 70 57 63 SE6 30.25R ORANGE MOCLDY 66 62 87 CALM 30.23R SPRINGFIELD MOCLDY 70 59 68 S10 30.22R WESTFIELD MOCLDY 68 58 70 S5 30.23R NORTH ADAMS PTCLDY 64 59 83 CALM 30.22R PITTSFIELD PTCLDY 69 56 62 S8 30.23R $$ RIZALL-300300- RHODE ISLAND CITY SKY/WX TMP DP RH WIND PRES REMARKS PROVIDENCE CLOUDY 63 59 87 S3 30.26S NEWPORT MOCLDY 59 57 93 CALM 30.26R BLOCK ISLAND MOCLDY 57 54 88 CALM 30.27R SMITHFIELD CLOUDY 63 52 67 CALM 30.26R WESTERLY FOG 58 58 100 SE3 30.27R VSB 1/4 $$ CTZALL-300300- CONNECTICUT CITY SKY/WX TMP DP RH WIND PRES REMARKS BRADLEY INTL MOCLDY 71 56 58 S10 30.23R HARTFORD MOCLDY 68 58 70 S7 30.24R BRIDGEPORT MOCLDY 67 60 78 SW3 30.25R DANBURY PTCLDY 66 56 70 CALM 30.26R GROTON CLOUDY 60 57 89 CALM 30.25R NEW HAVEN MOCLDY 62 57 83 CALM 30.25S CHESTER FAIR 63 59 88 CALM 30.27S MERIDEN MOCLDY 66 57 72 VRB5 30.25R WILLIMANTIC CLOUDY 67 56 67 S5 30.26R OXFORD MOCLDY 63 55 77 S6 30.26R $$ MEZ002-015-021-024-NHZ003-005-008-011-012-014-VTZ005-008-300300- NORTHERN NEW ENGLAND CITY SKY/WX TMP DP RH WIND PRES REMARKS PORTLAND ME FOG 60 59 96 S7 30.26R VSB 1/2 BANGOR ME MOCLDY 62 58 86 S8 30.23S CONCORD NH CLOUDY 67 59 75 SE3 30.23R MANCHESTER NH CLOUDY 69 59 70 S7 30.22R NASHUA NH CLOUDY 70 58 65 SE7 30.25R PORTSMOUTH NH FOG 56 55 96 SE6 30.24R VSB 1 JAFFREY NH CLOUDY 67 59 75 S5 30.25R KEENE NH MOCLDY 64 59 82 CALM 30.23R BURLINGTON VT MOCLDY 70 54 56 S7 30.14R MT. WASHINGTON CLOUDY 48 46 93 W28 N/A $$ NYZ052-076-300300- EASTERN NEW YORK CITY SKY/WX TMP DP RH WIND PRES REMARKS ALBANY CLOUDY 75 54 47 S8 30.18R NEW YORK CITY MOCLDY 69 58 67 S6 30.24R $$ ANZALL-300300- MARINE OBSERVATIONS STATION/POSITION TIME TEMP WIND PRES VSBY WAVE AIR SEA DIR/SP/G HT/PER (UTC) (F) (DEG/KT/KT) (MB) (MI) (FT/S) BOSTON BUOY 0150 55 56 150/ 6/ 8 N/A 1/ 9 BUZZARDS BAY 0100 140/ 3/ 4 N/A NANTUCKET SOUND 0150 60 61 80/ 2/ 4 N/A 1/ 8 MASS BAY-STELLWA 0104 53 55 140/ 10/ 12 N/A 1/2 2/ 8 ISLE OF SHOALS 0100 54 160/ 8/ 8 N/A S OF BLOCK IS 0108 59 N/A 2/ 9 $$ ......................KEY......................... SKY/WX - SKY CONDITION/PRESENT WEATHER TMP - TEMPERATURE IN FAHRENHEIT DWPT - DEWPOINT IN FAHRENHEIT RH - RELATIVE HUMIDITY IN PERCENT WIND - DIRECTION AND SPEED IN MPH PRES - MEAN SEA LEVEL PRESSURE IN INCHES OF HG WCI - WIND CHILL INDEX VSB - VISIBILITY IN MILES HX - HEAT INDEX TC - TEMPERATURE IN CELSIUS VRB - VARIABLE WIND DIRECTION N/A - NOT AVAILABLE

USA.gov is the U.S. government's official web portal to all federal, state and local government web resources and services.